TimeEDT,TemperatureF,Dew PointF,Humidity,Sea Level PressureIn,VisibilityMPH,Wind Direction,Wind SpeedMPH,Gust SpeedMPH,PrecipitationIn,Events,Conditions,WindDirDegrees,DateUTC
12:15 AM,75.2,73.4,94,30.08,10.0,Calm,Calm,-,N/A,,Mostly Cloudy,0,2013-06-17 04:15:00
12:35 AM,73.4,73.4,100,30.08,10.0,Calm,Calm,-,N/A,,Mostly Cloudy,0,2013-06-17 04:35:00
12:55 AM,73.4,73.4,100,30.07,7.0,Calm,Calm,-,N/A,,Scattered Clouds,0,2013-06-17 04:55:00
1:15 AM,73.4,73.4,100,30.07,7.0,Calm,Calm,-,N/A,,Mostly Cloudy,0,2013-06-17 05:15:00
1:35 AM,73.4,73.4,100,30.07,10.0,Calm,Calm,-,N/A,,Overcast,0,2013-06-17 05:35:00
1:55 AM,75.2,73.4,94,30.06,10.0,Calm,Calm,-,N/A,,Overcast,0,2013-06-17 05:55:00
2:15 AM,75.2,73.4,94,30.06,10.0,Calm,Calm,-,N/A,,Mostly Cloudy,0,2013-06-17 06:15:00
2:35 AM,73.4,73.4,100,30.06,10.0,Calm,Calm,-,N/A,,Scattered Clouds,0,2013-06-17 06:35:00
2:55 AM,73.4,73.4,100,30.04,10.0,Calm,Calm,-,N/A,,Clear,0,2013-06-17 06:55:00
3:15 AM,73.4,73.4,100,30.03,10.0,Calm,Calm,-,N/A,,Clear,0,2013-06-17 07:15:00
3:35 AM,73.4,71.6,94,30.03,10.0,Calm,Calm,-,N/A,,Clear,0,2013-06-17 07:35:00
3:55 AM,73.4,71.6,94,30.02,10.0,Calm,Calm,-,N/A,,Clear,0,2013-06-17 07:55:00
4:15 AM,73.4,71.6,94,30.03,10.0,Calm,Calm,-,N/A,,Clear,0,2013-06-17 08:15:00
4:35 AM,73.4,71.6,94,30.03,7.0,Calm,Calm,-,N/A,,Clear,0,2013-06-17 08:35:00
4:55 AM,73.4,71.6,94,30.03,10.0,Calm,Calm,-,N/A,,Clear,0,2013-06-17 08:55:00
5:15 AM,71.6,71.6,100,30.04,5.0,Calm,Calm,-,N/A,,Clear,0,2013-06-17 09:15:00
5:35 AM,71.6,71.6,100,30.04,7.0,Calm,Calm,-,N/A,,Clear,0,2013-06-17 09:35:00
5:55 AM,71.6,71.6,100,30.06,7.0,Calm,Calm,-,N/A,,Mostly Cloudy,0,2013-06-17 09:55:00
6:15 AM,73.4,71.6,94,30.06,7.0,Calm,Calm,-,N/A,,Overcast,0,2013-06-17 10:15:00
6:35 AM,71.6,71.6,100,30.06,7.0,Calm,Calm,-,N/A,,Scattered Clouds,0,2013-06-17 10:35:00
6:55 AM,71.6,71.6,100,30.06,5.0,Calm,Calm,-,N/A,,Mostly Cloudy,0,2013-06-17 10:55:00
7:15 AM,73.4,71.6,94,30.05,4.0,Calm,Calm,-,N/A,,Mostly Cloudy,0,2013-06-17 11:15:00
7:35 AM,73.4,71.6,94,30.06,1.8,Calm,Calm,-,N/A,,Overcast,0,2013-06-17 11:35:00
7:55 AM,73.4,71.6,94,30.06,7.0,Calm,Calm,-,N/A,,Scattered Clouds,0,2013-06-17 11:55:00
8:15 AM,77.0,73.4,89,30.06,10.0,Calm,Calm,-,N/A,,Clear,0,2013-06-17 12:15:00
8:35 AM,78.8,73.4,83,30.07,10.0,Calm,Calm,-,N/A,,Clear,0,2013-06-17 12:35:00
8:55 AM,78.8,73.4,83,30.06,10.0,Calm,Calm,-,N/A,,Clear,0,2013-06-17 12:55:00
9:15 AM,80.6,75.2,84,30.06,10.0,Calm,Calm,-,N/A,,Mostly Cloudy,0,2013-06-17 13:15:00
9:35 AM,80.6,77.0,89,30.06,10.0,Calm,Calm,-,N/A,,Scattered Clouds,0,2013-06-17 13:35:00
9:55 AM,82.4,77.0,84,30.06,10.0,Calm,Calm,-,N/A,,Scattered Clouds,0,2013-06-17 13:55:00
10:15 AM,84.2,77.0,79,30.06,10.0,WNW,3.5,-,N/A,,Scattered Clouds,290,2013-06-17 14:15:00
10:35 AM,86.0,75.2,70,30.06,10.0,Calm,Calm,-,N/A,,Scattered Clouds,0,2013-06-17 14:35:00
10:55 AM,86.0,75.2,70,30.06,10.0,West,4.6,-,N/A,,Mostly Cloudy,260,2013-06-17 14:55:00
11:15 AM,84.2,75.2,74,30.06,10.0,West,4.6,-,N/A,,Overcast,280,2013-06-17 15:15:00
11:35 AM,86.0,73.4,66,30.06,10.0,WSW,5.8,-,N/A,,Scattered Clouds,240,2013-06-17 15:35:00
11:55 AM,87.8,73.4,62,30.06,10.0,West,6.9,-,N/A,,Scattered Clouds,270,2013-06-17 15:55:00
12:15 PM,87.8,75.2,66,30.06,10.0,West,10.4,-,N/A,,Mostly Cloudy,270,2013-06-17 16:15:00
12:35 PM,87.8,73.4,62,30.06,10.0,West,8.1,-,N/A,,Scattered Clouds,260,2013-06-17 16:35:00
12:55 PM,87.8,71.6,58,30.05,10.0,West,10.4,-,N/A,,Scattered Clouds,260,2013-06-17 16:55:00
1:15 PM,87.8,71.6,58,30.05,10.0,WSW,6.9,-,N/A,,Clear,250,2013-06-17 17:15:00
1:35 PM,87.8,71.6,58,30.05,10.0,West,6.9,-,N/A,,Clear,280,2013-06-17 17:35:00
1:55 PM,87.8,69.8,55,30.05,10.0,WSW,8.1,-,N/A,,Clear,250,2013-06-17 17:55:00
2:15 PM,87.8,69.8,55,30.05,10.0,West,9.2,-,N/A,,Clear,280,2013-06-17 18:15:00
2:35 PM,89.6,71.6,55,30.04,10.0,West,6.9,-,N/A,,Clear,270,2013-06-17 18:35:00
2:55 PM,87.8,71.6,58,30.04,10.0,WNW,5.8,-,N/A,,Clear,290,2013-06-17 18:55:00
3:15 PM,87.8,69.8,55,30.04,10.0,WSW,9.2,-,N/A,,Scattered Clouds,240,2013-06-17 19:15:00
3:35 PM,89.6,69.8,52,30.03,10.0,WSW,4.6,-,N/A,,Clear,250,2013-06-17 19:35:00
3:55 PM,89.6,69.8,52,30.03,10.0,WSW,5.8,-,N/A,,Clear,240,2013-06-17 19:55:00
4:15 PM,89.6,69.8,52,30.03,10.0,WSW,11.5,-,N/A,,Clear,250,2013-06-17 20:15:00
4:35 PM,89.6,69.8,52,30.02,10.0,West,10.4,-,N/A,,Clear,270,2013-06-17 20:35:00
4:55 PM,87.8,69.8,55,30.01,10.0,West,10.4,-,N/A,,Clear,280,2013-06-17 20:55:00
5:15 PM,87.8,71.6,58,30.01,10.0,WNW,11.5,17.3,N/A,,Clear,290,2013-06-17 21:15:00
5:35 PM,86.0,71.6,62,30.00,10.0,WNW,6.9,16.1,N/A,,Clear,290,2013-06-17 21:35:00
5:55 PM,87.8,69.8,55,30.00,10.0,West,6.9,-,N/A,,Clear,270,2013-06-17 21:55:00
6:15 PM,86.0,69.8,58,30.01,10.0,West,6.9,-,N/A,,Clear,280,2013-06-17 22:15:00
6:35 PM,86.0,71.6,62,30.01,10.0,WNW,6.9,-,N/A,,Clear,290,2013-06-17 22:35:00
6:55 PM,86.0,69.8,58,30.02,10.0,West,8.1,-,N/A,,Clear,270,2013-06-17 22:55:00
7:15 PM,84.2,71.6,66,30.01,10.0,West,8.1,-,N/A,,Clear,280,2013-06-17 23:15:00
7:35 PM,82.4,71.6,70,30.01,10.0,West,9.2,-,N/A,,Clear,280,2013-06-17 23:35:00
7:55 PM,82.4,73.4,74,30.01,10.0,West,6.9,-,N/A,,Clear,270,2013-06-17 23:55:00
8:15 PM,82.4,71.6,70,30.01,10.0,West,6.9,-,N/A,,Clear,270,2013-06-18 00:15:00
8:35 PM,80.6,71.6,74,30.02,10.0,West,5.8,-,N/A,,Clear,270,2013-06-18 00:35:00
8:55 PM,80.6,73.4,79,30.04,10.0,West,3.5,-,N/A,,Scattered Clouds,260,2013-06-18 00:55:00
9:15 PM,80.6,73.4,79,30.04,10.0,Calm,Calm,-,N/A,,Clear,0,2013-06-18 01:15:00
9:35 PM,78.8,73.4,83,30.04,10.0,Calm,Calm,-,N/A,,Clear,0,2013-06-18 01:35:00
9:55 PM,78.8,71.6,78,30.04,10.0,Calm,Calm,-,N/A,,Clear,0,2013-06-18 01:55:00
10:15 PM,77.0,71.6,83,30.04,10.0,Calm,Calm,-,N/A,,Clear,0,2013-06-18 02:15:00
10:35 PM,77.0,71.6,83,30.05,10.0,Calm,Calm,-,N/A,,Clear,0,2013-06-18 02:35:00
10:55 PM,77.0,71.6,83,30.05,10.0,Calm,Calm,-,N/A,,Clear,0,2013-06-18 02:55:00
11:15 PM,77.0,71.6,83,30.05,10.0,Calm,Calm,-,N/A,,Clear,0,2013-06-18 03:15:00
11:35 PM,73.4,71.6,94,30.05,10.0,Calm,Calm,-,N/A,,Clear,0,2013-06-18 03:35:00
11:55 PM,75.2,71.6,89,30.05,10.0,Calm,Calm,-,N/A,,Clear,0,2013-06-18 03:55:00